Location: Alfords
(31.4624°N, 83.9238°W)
Time: 23:39:32
(UTC+00:00)

Hubble Space Telescope - Visible Passes

Search period start: 28 September 2021 00:00
Search period end: 08 October 2021 00:00
Orbit: 535 x 539 km, 28.5° (Epoch: 28 September)

Date Brightness Start Highest point End Pass type
(mag) Time Alt. Az. Time Alt. Az. Time Alt. Az.
05 Oct 3.5 10:37:00 10° S 10:38:31 12° SSE 10:40:02 10° SE visible
06 Oct 3.3 10:25:00 10° S 10:27:22 15° SSE 10:29:44 10° ESE visible
07 Oct 3.0 10:13:42 11° SSW 10:16:13 18° SSE 10:19:07 10° ESE visible
